Location: Cisewo
(53.3833°N, 14.9000°E)
Time: 10:42:45
(UTC+00:00)

COSMOS 2455 - Pass Details

Date: 18 April 2021
Orbit: 902 x 907 km, 67.1° (Epoch: 14 May)

Event Time Altitude Azimuth Distance (km) Brightness Sun altitude
Exits shadow 21:18:15 43° 176° (S) 1,260 3.1 -21.9°
Maximum altitude 21:20:00 59° 121° (ESE) 1,044 2.8 -22.1°
Drops below altitude 10° 21:25:54 10° 44° (NE) 2,601 5.5 -22.4°
Sets 21:28:27 0° 41° (NE) 3,546 6.3 -22.6°
